GW2819 Weather Reports


time (UTC)temp
C
wind
direction
speed
KPH
gust
KPH
rain 1hr
cm
rain 24hr
cm
rain mn
cm
humidity
%
barometer
mb
20260506045003 11 360 0.0 3.2 0.00 0.03 0.00 91 1007.2
20260506044509 11 360 0.0 3.2 0.00 0.03 0.00 90 1007.2
20260506044004 11 360 0.0 3.2 0.00 0.03 0.00 90 1007.3
20260506043508 11 360 0.0 3.2 0.00 0.03 0.00 90 1007.2
20260506043010 12 360 0.0 3.2 0.00 0.03 0.00 90 1007.3
20260506042506 12 360 0.0 3.2 0.00 0.03 0.00 90 1007.3
20260506042014 12 360 0.0 3.2 0.00 0.03 0.00 89 1007.1
20260506041517 12 360 0.0 1.6 0.00 0.03 0.00 88 1007.2
20260506041011 12 360 0.0 3.2 0.00 0.03 0.00 88 1007.0
20260506040506 12 360 0.0 3.2 0.00 0.03 0.00 88 1006.9
20260506040024 13 360 0.0 3.2 0.00 0.03 0.00 88 1007.0
20260506035507 13 360 0.0 0.0 0.00 0.03 0.03 89 1006.9
20260506035002 13 360 0.0 3.2 0.00 0.03 0.03 89 1006.9
20260506034505 13 360 0.0 3.2 0.00 0.03 0.03 88 1007.1
20260506034005 13 360 0.0 3.2 0.00 0.03 0.03 88 1007.1
20260506033509 13 360 0.0 3.2 0.00 0.03 0.03 89 1007.0
20260506033008 13 360 0.0 3.2 0.00 0.03 0.03 89 1007.1
20260506032506 13 360 0.0 3.2 0.00 0.03 0.03 88 1007.1
20260506032009 13 360 0.0 3.2 0.00 0.03 0.03 88 1007.3
20260506031525 13 360 0.0 3.2 0.00 0.03 0.03 88 1007.3
20260506031006 13 360 0.0 3.2 0.00 0.03 0.03 88 1007.3
20260506030506 13 360 0.0 3.2 0.00 0.03 0.03 88 1007.4
20260506030018 13 360 0.0 3.2 0.00 0.03 0.03 88 1007.4
20260506025510 13 360 0.0 3.2 0.00 0.03 0.03 88 1007.5
20260506025010 13 360 0.0 3.2 0.00 0.03 0.03 88 1007.4
20260506024528 13 360 0.0 3.2 0.00 0.03 0.03 89 1007.4
20260506024009 13 360 0.0 3.2 0.00 0.03 0.03 88 1007.4
20260506023504 13 360 0.0 4.8 0.00 0.03 0.03 88 1007.4
20260506023008 13 360 0.0 4.8 0.00 0.03 0.03 89 1007.5
20260506022502 13 360 0.0 6.4 0.00 0.03 0.03 91 1007.6
20260506022009 13 360 1.6 6.4 0.00 0.03 0.03 91 1007.4
20260506021512 14 360 0.0 3.2 0.00 0.03 0.03 93 1007.7
20260506021005 14 360 0.0 3.2 0.00 0.03 0.03 93 1007.6
20260506020505 14 360 0.0 3.2 0.00 0.03 0.03 93 1007.3
20260506020017 14 360 0.0 1.6 0.00 0.03 0.03 93 1007.1
20260506015507 14 360 0.0 0.0 0.00 0.03 0.03 93 1006.8
20260506015010 14 360 0.0 0.0 0.00 0.03 0.03 93 1006.7
20260506014523 14 360 0.0 0.0 0.00 0.03 0.03 93 1006.7
20260506014009 14 360 0.0 0.0 0.00 0.03 0.03 93 1006.7
20260506013508 14 360 0.0 0.0 0.00 0.03 0.03 93 1006.5
20260506013026 14 360 0.0 0.0 0.00 0.03 0.03 92 1006.4
20260506012508 14 360 0.0 0.0 0.00 0.03 0.03 92 1006.4
20260506012004 14 360 0.0 3.2 0.00 0.03 0.03 92 1006.3
20260506011515 15 360 0.0 3.2 0.03 0.03 0.03 92 1006.5
20260506011006 15 360 0.0 3.2 0.03 0.03 0.03 92 1006.4
20260506010511 15 360 0.0 3.2 0.03 0.03 0.03 92 1006.4
20260506010043 15 360 0.0 3.2 0.03 0.03 0.03 91 1006.5
20260506005506 15 360 0.0 3.2 0.03 0.03 0.03 90 1006.4
20260506005006 15 360 0.0 3.2 0.03 0.03 0.03 90 1006.1
20260506004521 15 360 0.0 3.2 0.03 0.03 0.03 90 1006.2
20260506004006 15 360 0.0 3.2 0.03 0.03 0.03 90 1006.1
20260506003512 15 360 1.6 3.2 0.03 0.03 0.03 90 1005.7
20260506003023 15 360 0.0 3.2 0.03 0.03 0.03 90 1006.3
20260506002509 15 360 1.6 3.2 0.03 0.03 0.03 89 1006.3
20260506002009 15 360 0.0 4.8 0.03 0.03 0.03 89 1006.3
20260506001530 16 360 1.6 4.8 0.00 0.00 0.00 89 1006.1
20260506001010 16 360 3.2 4.8 0.00 0.00 0.00 88 1006.3
20260506000508 16 360 0.0 3.2 0.00 0.00 0.00 88 1006.5
20260506000015 16 360 0.0 3.2 0.00 0.00 0.00 87 1006.5
20260505235508 16 360 0.0 3.2 0.00 0.00 0.00 86 1006.5
20260505235008 16 360 0.0 3.2 0.00 0.00 0.00 85 1006.6
20260505234518 16 360 0.0 3.2 0.00 0.00 0.00 84 1006.4
20260505234006 16 360 0.0 3.2 0.00 0.00 0.00 84 1006.3
20260505233507 16 360 0.0 3.2 0.00 0.00 0.00 84 1006.3
20260505233022 16 360 0.0 3.2 0.00 0.00 0.00 83 1006.2
20260505232511 17 360 0.0 3.2 0.00 0.00 0.00 83 1006.0
20260505232008 17 360 0.0 3.2 0.00 0.00 0.00 81 1005.9
20260505231524 17 360 0.0 8.0 0.00 0.00 0.00 80 1005.8
20260505231007 17 360 0.0 8.0 0.00 0.00 0.00 80 1005.9
20260505230509 17 360 1.6 9.7 0.00 0.00 0.00 78 1006.0
20260505230037 17 360 3.2 14.5 0.00 0.00 0.00 77 1006.2
20260505225508 18 360 3.2 25.7 0.00 0.00 0.00 74 1006.2
20260505225007 18 360 3.2 25.7 0.00 0.00 0.00 69 1006.1
20260505224512 20 24 8.0 24.1 0.00 0.00 0.00 62 1006.0
20260505224005 20 41 9.7 25.7 0.00 0.00 0.00 54 1005.5
20260505223509 20 303 6.4 16.1 0.00 0.00 0.00 54 1004.4
20260505223028 21 360 6.4 17.7 0.00 0.00 0.00 53 1003.1
20260505222503 21 360 1.6 20.9 0.00 0.00 0.00 53 1003.0
20260505222003 21 360 6.4 30.6 0.00 0.00 0.00 52 1002.9
20260505221524 21 360 6.4 30.6 0.00 0.00 0.00 52 1002.8
20260505221009 21 169 8.0 24.1 0.00 0.00 0.00 52 1002.7
20260505220504 21 190 1.6 24.1 0.00 0.00 0.00 52 1002.4
20260505220009 21 123 3.2 24.1 0.00 0.00 0.00 51 1002.3
20260505215507 22 146 6.4 19.3 0.00 0.00 0.00 51 1002.4
20260505215005 22 84 6.4 20.9 0.00 0.00 0.00 51 1002.3
20260505214510 22 179 8.0 22.5 0.00 0.00 0.00 50 1002.3
20260505214006 22 304 6.4 22.5 0.00 0.00 0.00 51 1002.2
20260505213508 22 136 4.8 27.4 0.00 0.00 0.00 50 1002.2
20260505213024 22 284 9.7 24.1 0.00 0.00 0.00 49 1002.2
20260505212511 22 185 8.0 19.3 0.00 0.00 0.00 49 1002.1
20260505212010 22 148 6.4 29.0 0.00 0.00 0.00 49 1002.1
20260505211504 22 151 8.0 29.0 0.00 0.00 0.00 48 1002.2
20260505211004 23 173 8.0 22.5 0.00 0.00 0.00 48 1002.2
20260505210503 23 184 1.6 22.5 0.00 0.00 0.00 49 1002.0
20260505210007 23 137 8.0 25.7 0.00 0.00 0.00 48 1002.1
20260505205503 23 173 9.7 37.0 0.00 0.00 0.00 48 1002.0
20260505205007 23 360 9.7 37.0 0.00 0.00 0.00 48 1001.9
20260505204509 23 360 9.7 24.1 0.00 0.00 0.00 47 1002.0
20260505204015 23 360 6.4 37.0 0.00 0.00 0.00 47 1001.9
20260505203504 23 360 12.9 37.0 0.00 0.00 0.00 46 1002.0
20260505203025 24 360 6.4 24.1 0.00 0.00 0.00 46 1002.1
20260505202505 24 360 9.7 24.1 0.00 0.00 0.00 45 1002.1
20260505202010 24 360 6.4 30.6 0.00 0.00 0.00 47 1002.1
20260505201519 24 360 6.4 37.0 0.00 0.00 0.00 45 1002.1
20260505201007 24 360 11.3 37.0 0.00 0.00 0.00 45 1002.1
20260505200503 25 360 8.0 25.7 0.00 0.00 0.00 44 1002.0
20260505200006 25 360 8.0 25.7 0.00 0.00 0.00 44 1002.1
20260505195503 25 360 6.4 25.7 0.00 0.00 0.00 44 1002.0
20260505195004 25 360 4.8 22.5 0.00 0.00 0.00 44 1002.1
20260505194508 25 360 4.8 32.2 0.00 0.00 0.00 44 1002.3
20260505194007 25 360 6.4 32.2 0.00 0.00 0.00 44 1002.4
20260505193503 25 360 6.4 30.6 0.00 0.00 0.00 43 1002.2
20260505193012 25 360 12.9 30.6 0.00 0.00 0.00 42 1002.2
20260505192506 26 360 8.0 25.7 0.00 0.00 0.00 43 1002.5
20260505192009 26 360 9.7 25.7 0.00 0.00 0.00 41 1002.5
20260505191519 26 360 4.8 17.7 0.00 0.00 0.00 43 1002.6
20260505191012 26 360 6.4 19.3 0.00 0.00 0.00 42 1002.6
20260505190517 26 360 6.4 32.2 0.00 0.00 0.00 44 1002.6
20260505190026 26 360 8.0 32.2 0.00 0.00 0.00 43 1002.6
20260505185512 26 360 4.8 19.3 0.00 0.00 0.00 43 1002.8
20260505185003 26 360 6.4 24.1 0.00 0.00 0.00 43 1002.8
20260505184508 25 360 6.4 24.1 0.00 0.00 0.00 42 1002.8
20260505184004 26 360 8.0 20.9 0.00 0.00 0.00 42 1002.9
20260505183503 25 360 3.2 20.9 0.00 0.00 0.00 44 1003.1
20260505183009 25 360 6.4 20.9 0.00 0.00 0.00 43 1003.3
20260505182506 25 360 4.8 25.7 0.00 0.00 0.00 44 1003.4
20260505182009 25 360 6.4 25.7 0.00 0.00 0.00 44 1003.4
20260505181515 25 360 8.0 22.5 0.00 0.00 0.00 44 1003.4
20260505181009 25 360 6.4 22.5 0.00 0.00 0.00 44 1003.4
20260505180508 24 360 8.0 25.7 0.00 0.00 0.00 44 1003.4
20260505180018 24 360 6.4 25.7 0.00 0.00 0.00 45 1003.4
20260505175507 24 360 8.0 25.7 0.00 0.00 0.00 44 1003.6
20260505175014 24 360 9.7 25.7 0.00 0.00 0.00 44 1003.8
20260505174524 23 360 6.4 25.7 0.00 0.00 0.00 45 1003.7
20260505174016 24 360 9.7 16.1 0.00 0.00 0.00 44 1003.9
20260505173503 24 360 6.4 20.9 0.00 0.00 0.00 45 1004.0
20260505173005 23 360 9.7 20.9 0.00 0.00 0.00 46 1003.9
20260505172507 24 360 12.9 22.5 0.00 0.00 0.00 44 1003.8
20260505172008 25 360 8.0 25.7 0.00 0.00 0.00 44 1003.9
20260505171519 24 360 11.3 25.7 0.00 0.00 0.00 44 1003.9
20260505171007 24 360 6.4 24.1 0.00 0.00 0.00 45 1003.8
20260505170509 24 360 8.0 24.1 0.00 0.00 0.00 45 1003.9
20260505170027 24 360 3.2 17.7 0.00 0.00 0.00 46 1004.0
20260505165511 23 360 8.0 17.7 0.00 0.00 0.00 46 1004.1
20260505165011 23 360 8.0 27.4 0.00 0.00 0.00 44 1004.0
20260505164521 23 360 9.7 27.4 0.00 0.00 0.00 46 1004.3
20260505164010 23 360 8.0 22.5 0.00 0.00 0.00 44 1004.3
20260505163508 23 360 4.8 22.5 0.00 0.00 0.00 47 1004.5
20260505163025 23 360 4.8 16.1 0.00 0.00 0.00 46 1004.7
20260505162509 23 360 8.0 17.7 0.00 0.00 0.00 45 1004.8
20260505162008 23 360 9.7 17.7 0.00 0.00 0.00 48 1004.9
20260505161510 22 360 4.8 22.5 0.00 0.00 0.00 46 1005.1
20260505161007 22 360 6.4 22.5 0.00 0.00 0.00 48 1005.1
20260505160512 22 360 3.2 14.5 0.00 0.00 0.00 51 1005.2
20260505153026 22 360 8.0 22.5 0.00 0.00 0.00 46 1005.8
20260505152508 22 360 6.4 14.5 0.00 0.00 0.00 50 1005.9
20260505152013 21 360 3.2 17.7 0.00 0.00 0.00 49 1006.0
20260505151532 21 360 6.4 19.3 0.00 0.00 0.00 49 1006.2
20260505151009 21 360 9.7 19.3 0.00 0.00 0.00 46 1006.1
20260505150510 21 360 4.8 17.7 0.00 0.00 0.00 49 1006.1
20260505140508 19 360 6.4 16.1 0.00 0.00 0.00 52 1005.9
20260505125004 15 360 0.0 16.1 0.00 0.00 0.00 66 1006.6
20260505124504 15 360 3.2 16.1 0.00 0.00 0.00 69 1006.7
20260505124004 15 360 4.8 12.9 0.00 0.00 0.00 66 1006.8
20260505123503 14 360 4.8 12.9 0.00 0.00 0.00 68 1006.9
20260505123004 13 360 1.6 12.9 0.00 0.00 0.00 71 1006.9
20260505122503 13 360 1.6 14.5 0.00 0.00 0.00 74 1006.9
20260505122003 13 360 4.8 14.5 0.00 0.00 0.00 75 1006.9
20260505121504 12 360 3.2 8.0 0.00 0.00 0.00 78 1007.0
20260505121003 12 360 3.2 4.8 0.00 0.00 0.00 81 1007.0
20260505120503 11 24 1.6 8.0 0.00 0.00 0.00 82 1007.0
20260505120026 10 360 1.6 12.9 0.00 0.00 0.00 84 1007.1
20260505115502 10 161 3.2 12.9 0.00 0.00 0.00 97 1007.0
20260505115003 9 360 0.0 3.2 0.00 0.00 0.00 97 1007.0
20260505114504 8 360 0.0 3.2 0.00 0.00 0.00 97 1007.1
20260505114004 8 360 1.6 3.2 0.00 0.00 0.00 97 1007.1
20260505113505 7 360 0.0 6.4 0.00 0.00 0.00 97 1007.1
20260505113007 6 360 1.6 6.4 0.00 0.00 0.00 97 1007.1
20260505112503 6 360 0.0 3.2 0.00 0.00 0.00 97 1007.2
20260505112003 6 28 0.0 3.2 0.00 0.00 0.00 97 1007.2
20260505111507 5 360 0.0 3.2 0.00 0.00 0.00 96 1007.2
20260505111006 5 360 0.0 3.2 0.00 0.00 0.00 96 1007.2
20260505110502 5 360 0.0 3.2 0.00 0.00 0.00 96 1007.1
20260505102006 1 360 0.0 0.0 0.00 0.00 0.00 95 1007.2
20260505101519 1 360 0.0 0.0 0.00 0.00 0.00 95 1007.2
20260505101003 1 360 0.0 3.2 0.00 0.00 0.00 95 1007.2
20260505100503 1 360 0.0 3.2 0.00 0.00 0.00 95 1007.1
20260505100019 1 360 0.0 3.2 0.00 0.00 0.00 95 1007.0
20260505095504 1 360 0.0 3.2 0.00 0.00 0.00 95 1007.0
20260505095003 1 360 0.0 0.0 0.00 0.00 0.00 95 1007.0
20260505094508 1 360 0.0 3.2 0.00 0.00 0.00 95 1007.1
20260505094004 1 360 0.0 3.2 0.00 0.00 0.00 95 1007.1
20260505093504 1 360 0.0 0.0 0.00 0.00 0.00 94 1007.0
20260505093008 1 360 0.0 0.0 0.00 0.00 0.00 94 1006.9
20260505092507 1 360 0.0 0.0 0.00 0.00 0.00 94 1007.0
20260505092007 1 360 0.0 0.0 0.00 0.00 0.00 94 1007.0
20260505091522 1 360 0.0 0.0 0.00 0.00 0.00 94 1007.0
20260505091005 1 360 0.0 0.0 0.00 0.00 0.00 94 1007.0
20260505090506 1 360 0.0 3.2 0.00 0.00 0.00 94 1007.0
20260505090026 1 360 0.0 3.2 0.00 0.00 0.00 94 1007.1
20260505085506 1 360 0.0 0.0 0.00 0.00 0.00 94 1007.1
20260505085004 1 360 0.0 3.2 0.00 0.00 0.00 94 1007.1
20260505084512 1 360 0.0 1.6 0.00 0.00 0.00 94 1007.1
20260505084004 1 360 0.0 0.0 0.00 0.00 0.00 94 1007.1
20260505083507 1 360 0.0 0.0 0.00 0.00 0.00 94 1007.2
20260505083011 1 360 0.0 0.0 0.00 0.00 0.00 94 1007.2
20260505082504 1 360 0.0 0.0 0.00 0.00 0.00 94 1007.2
20260505082007 1 360 0.0 0.0 0.00 0.00 0.00 94 1007.2
20260505081516 1 360 0.0 0.0 0.00 0.00 0.00 94 1007.2
20260505081007 1 360 0.0 3.2 0.00 0.00 0.00 94 1007.3
20260505080507 1 360 0.0 3.2 0.00 0.00 0.00 94 1007.4
20260505080016 1 360 0.0 3.2 0.00 0.00 0.00 94 1007.4
20260505075505 1 360 0.0 1.6 0.00 0.00 0.00 94 1007.3
20260505075007 1 360 0.0 0.0 0.00 0.00 0.00 94 1007.3
20260505074515 1 360 0.0 1.6 0.00 0.00 0.00 94 1007.3
20260505074007 1 360 0.0 1.6 0.00 0.00 0.00 94 1007.3
20260505073507 1 360 0.0 1.6 0.00 0.00 0.00 94 1007.3
20260505073028 1 360 0.0 0.0 0.00 0.00 0.00 94 1007.3
20260505072511 1 360 0.0 0.0 0.00 0.00 0.00 94 1007.3
20260505072009 1 360 0.0 3.2 0.00 0.00 0.00 94 1007.3
20260505071516 1 360 0.0 3.2 0.00 0.00 0.00 94 1007.3
20260505071004 1 360 0.0 3.2 0.00 0.00 0.00 94 1007.2
20260505070510 1 360 0.0 3.2 0.00 0.00 0.00 94 1007.2
20260505070020 1 360 0.0 1.6 0.00 0.00 0.00 94 1007.3
20260505065507 1 360 0.0 1.6 0.00 0.00 0.00 94 1007.3
20260505065008 1 360 0.0 0.0 0.00 0.00 0.00 94 1007.3
20260505064534 1 360 0.0 0.0 0.00 0.00 0.00 93 1007.4
20260505064005 2 360 0.0 3.2 0.00 0.00 0.00 93 1007.4
20260505063507 2 360 0.0 3.2 0.00 0.00 0.00 93 1007.4
20260505063018 2 360 0.0 3.2 0.00 0.00 0.00 94 1007.4
20260505062510 2 360 0.0 3.2 0.00 0.00 0.00 94 1007.3
20260505062011 2 360 0.0 0.0 0.00 0.00 0.00 94 1007.3
20260505061530 2 360 0.0 0.0 0.00 0.00 0.00 93 1007.3
20260505061008 2 360 0.0 0.0 0.00 0.00 0.00 93 1007.2
20260505060512 2 360 0.0 0.0 0.00 0.00 0.00 93 1007.2
20260505060019 2 360 0.0 3.2 0.00 0.00 0.00 93 1007.2
20260505055511 2 360 0.0 3.2 0.00 0.00 0.00 93 1007.3
20260505055010 2 360 0.0 3.2 0.00 0.00 0.00 93 1007.3
20260505054530 2 360 0.0 0.0 0.00 0.00 0.00 93 1007.2
20260505054012 2 360 0.0 0.0 0.00 0.00 0.00 93 1007.2
20260505053509 2 360 0.0 3.2 0.00 0.00 0.00 93 1007.2
20260505053018 2 360 0.0 3.2 0.00 0.00 0.00 93 1007.2
20260505052510 2 360 0.0 0.0 0.00 0.00 0.00 93 1007.1
20260505052011 2 360 0.0 0.0 0.00 0.00 0.00 93 1007.1
20260505051521 2 360 0.0 3.2 0.00 0.00 0.00 93 1007.1
20260505051009 3 360 0.0 3.2 0.00 0.00 0.00 93 1007.1
20260505050507 3 360 0.0 3.2 0.00 0.00 0.00 93 1007.2